Location: Akdamlar
(36.8729°N, 30.5187°E)
Time: 15:15:39
(UTC+00:00)

Okean-O - Pass Details

Date: 18 September 2020
Orbit: 639 x 641 km, 98.2° (Epoch: 19 October)

Event Time Altitude Azimuth Distance (km) Brightness Sun altitude
Rises 16:25:40 0° 165° (SSE) 2,929 5.8 -5.8°
Reaches altitude 10° 16:27:51 10° 165° (SSE) 2,025 5.0 -6.3°
Maximum altitude 16:32:16 86° 78° (ENE) 647 2.6 -7.2°
Drops below altitude 10° 16:36:44 10° 348° (NNW) 2,039 5.5 -8.0°
Sets 16:38:56 0° 348° (NNW) 2,952 6.3 -8.5°
